{"data":{"norad_id":60292,"intl_designator":"2024-132Q","name":"STARLINK-32149","alt_names":[],"object_type":"PAYLOAD","status":"ACTIVE","operator":null,"country":"US","launch_date":"2024-07-28","launch_site_code":"AFETR","launch_vehicle":null,"mission":null,"orbit_class":"UNKNOWN","rcs_meters":null,"size_class":null,"mass_kg":null,"dimensions":null,"purposes":["comms"],"wikipedia_slug":null,"has_3d_model":false,"image_url":null,"decayed_at":null,"tle_current":{"epoch":"2026-09-21T14:47:46.392288Z","epoch_age_seconds":85856,"freshness":"FRESH","line1":"1 60292U 24132Q   26264.61650917  .00000119  00000+0  15595-4 0  9995","line2":"2 60292  53.1589 221.2412 0001389  84.4386 275.6774 15.31698535121570","mean_motion":15.31698535,"eccentricity":0.0001389,"inclination_deg":53.1589,"raan_deg":221.2412,"arg_perigee_deg":84.4386,"mean_anomaly_deg":275.6774,"bstar":1.5595e-5,"rev_number":12157,"period_min":94.013277880428,"perigee_km":469.79305269667,"apogee_km":471.69567193912,"semimajor_km":6848.8813623179,"source":"CELESTRAK","updated_at":"2026-09-22T09:00:49.194319Z"}}}